Powrót do katalogu

ISIS 1

AktywnyNaukaPO
NORAD 3669·PAYLOAD·🇨🇦 Canada

Wystrzelony Jan 30, 1969 z Vandenberg Space Force Base

Loading…

Następne Przeloty (najbliższe 24 godziny)

TLE

ŚwieżeSource: Space-Track

Epoka: Sep 14, 2026, 09:55 UTC

1 03669U 69009A   26257.41347614  .00000168  00000-0  10374-3 0  9993
2 03669  88.4396 134.6037 1707945  68.1195 309.2329 11.30448969369855

Śledź ISIS 1 w czasie rzeczywistym z AllMySat

Download on the App Store